Henderson, NV

11:37 AM PST on January 23, 2017 (GMT -0800)
Henderson

Weather History for KHND - November, 2013

Change the Weather History Date:

Friday, November 22, 2013

  Actual Average (KLAS) Record (KLAS)
Temperature  
Mean Temperature 44 °F -  
Max Temperature 46 °F 61 °F 77 °F (1976)
Min Temperature 41 °F 40 °F 24 °F (1941)
Degree Days  
Heating Degree Days 22    
Moisture  
Dew Point 40 °F    
Average Humidity 88    
Maximum Humidity 100    
Minimum Humidity 74    
Precipitation  
Precipitation 0.26 in - - ()
Sea Level Pressure  
Sea Level Pressure 30.04 in    
Wind  
Wind Speed 4 mph (NNE)    
Max Wind Speed 26 mph    
Max Gust Speed 31 mph    
Visibility 8 miles    
Events Rain    
Averages and records for this station are not official NWS values.
T = Trace of Precipitation, MM = Missing Value Source: NWS Daily Summary

Daily Weather History Graph

Daily Weather History Graph

Search for Another Location

Airport or City:

Trip Planner

Search our weather history database for the weather conditions in past years. The results will help you decide how hot, cold, wet, or windy it might be!

Date:

Astronomy

Nov. 22, 2013 Rise Set
Actual Time 6:24 AM PST 4:28 PM PST
Civil Twilight 5:56 AM PST 4:56 PM PST
Nautical Twilight 5:25 AM PST 5:27 PM PST
Astronomical Twilight 4:54 AM PST 5:58 PM PST
Moon 9:02 PM PST (11/22) 10:12 AM PST (11/22)
Length of Visible Light 11h 00m
Length of Day
10h 04m
Waning Gibbous, 77% of the Moon is Illuminated
Nov 22
Waning Gibbous
Nov 25
Last Quarter
Dec 2
New
Dec 9
First Quarter
Dec 17
Full

Hourly Weather History & Observations

Time (PST) Temp. Windchill Dew Point Humidity Pressure Visibility Wind Dir Wind Speed Gust Speed Precip Events Conditions
12:56 AM 43.0 °F - 41.9 °F 96% 30.04 in 10.0 mi Calm Calm - 0.02 in Rain Light Rain
1:56 AM 43.0 °F - 39.9 °F 89% 30.05 in 10.0 mi Calm Calm - 0.00 in   Overcast
2:56 AM 43.0 °F 38.8 °F 39.9 °F 89% 30.05 in 10.0 mi NE 6.9 mph - 0.00 in Rain Heavy Rain
3:56 AM 41.9 °F - 39.9 °F 93% 30.03 in 10.0 mi Calm Calm - 0.01 in Rain Heavy Rain
4:48 AM 42.8 °F - 41.0 °F 93% 30.02 in 4.0 mi Calm Calm - 0.02 in Rain Heavy Rain
4:56 AM 41.9 °F - 41.9 °F 100% 30.03 in 5.0 mi Calm Calm - 0.03 in Rain Heavy Rain
5:56 AM 41.9 °F 40.0 °F 41.9 °F 100% 30.04 in 7.0 mi NNE 3.5 mph - 0.05 in Rain Heavy Rain
6:56 AM 41.9 °F 36.3 °F 41.9 °F 100% 30.04 in 6.0 mi North 9.2 mph - 0.03 in Rain Heavy Rain
7:56 AM 41.9 °F - 41.9 °F 100% 30.05 in 10.0 mi Calm Calm - 0.01 in   Overcast
8:56 AM 43.9 °F 39.9 °F 41.0 °F 90% 30.04 in 10.0 mi NNE 6.9 mph - N/A   Overcast
9:56 AM 45.9 °F 41.7 °F 38.8 °F 76% 30.06 in 10.0 mi North 8.1 mph - 0.01 in   Overcast
10:56 AM 45.9 °F 37.0 °F 37.9 °F 74% 30.03 in 6.0 mi NNE 26.5 mph 31.1 mph 0.03 in Rain Light Rain
11:04 AM 44.6 °F 37.8 °F 37.4 °F 76% 30.01 in 8.0 mi NNE 15.0 mph 31.1 mph 0.00 in Rain Rain
11:56 AM 45.9 °F 40.8 °F 39.9 °F 80% 30.00 in 10.0 mi NNE 10.4 mph - 0.00 in Rain Rain
12:05 PM 46.4 °F 41.1 °F 39.2 °F 76% 29.98 in 10.0 mi NNE 11.5 mph - 0.00 in   Overcast
12:56 PM 45.0 °F 41.8 °F 41.0 °F 86% 30.02 in 6.0 mi NNE 5.8 mph - 0.01 in   Overcast
1:15 PM 44.6 °F 38.8 °F 39.2 °F 81% 30.00 in 4.0 mi NNE 11.5 mph - 0.01 in   Overcast
1:35 PM 44.6 °F 38.1 °F 39.2 °F 81% 30.00 in 5.0 mi NE 13.8 mph 19.6 mph 0.01 in   Overcast
1:56 PM 43.9 °F 37.5 °F 39.9 °F 86% 30.03 in 5.0 mi NE 12.7 mph 25.3 mph 0.03 in Rain Rain
2:56 PM 43.0 °F 37.7 °F 41.0 °F 93% 30.02 in 9.0 mi NE 9.2 mph - 0.01 in Rain Rain
3:56 PM 43.0 °F - 41.9 °F 96% 30.06 in 6.0 mi Calm Calm - 0.01 in Rain Rain
4:56 PM 43.0 °F - 39.9 °F 89% 30.04 in 10.0 mi Calm Calm - 0.00 in Rain Rain
5:56 PM 43.0 °F - 41.0 °F 93% 30.07 in 10.0 mi Calm Calm - 0.00 in Rain Rain
6:24 PM 42.8 °F - 41.0 °F 93% 30.03 in 10.0 mi Calm Calm - 0.00 in Rain Rain
6:56 PM 43.9 °F - 41.9 °F 93% 30.07 in 10.0 mi Calm Calm - 0.00 in Rain Rain
7:56 PM 43.9 °F - 41.0 °F 90% 30.08 in 10.0 mi Calm Calm - 0.00 in Rain Rain
8:56 PM 43.9 °F - 38.8 °F 82% 30.08 in 10.0 mi Calm Calm - 0.00 in Rain Rain
9:56 PM 43.9 °F 40.5 °F 37.9 °F 80% 30.09 in 10.0 mi NNE 5.8 mph - 0.00 in Rain Rain
10:56 PM 43.9 °F - 38.8 °F 82% 30.07 in 10.0 mi Calm Calm - 0.00 in Rain Rain
11:56 PM 43.9 °F - 41.0 °F 90% 30.05 in 10.0 mi Calm Calm - 0.01 in Rain Rain